sat.trackr.live / text

‹ back to catalog

STARLINK-35234

NORAD 65601 · 2025-207K

PAYLOAD ACTIVE UNKNOWN

§ Identity

Operator
Country
US
Launch date
2025-09-13
Launch site
AFWTR
Launch vehicle
Mass (kg)
RCS (m²)

Purposes: comms

External: N2YO · Heavens-Above · Gunter

§ Orbital elements

Epoch: 2026-09-20T22:00:03.000096Z

Period
93.91 min
Inclination
97.2851°
Eccentricity
0.0001892
Mean motion
15.33442023 rev/d
Perigee alt
464.3 km
Apogee alt
466.8 km
Semi-major
6,843.7 km
B*
-4.2598e-4
RAAN
326.4860°
Arg perigee
91.4003°
Mean anomaly
309.1213°
Rev number
579

§ Raw data

STARLINK-352341 65601U 25207K   26263.91670139 -.00013802  00000+0 -42598-3 0  99952 65601  97.2851 326.4860 0001892  91.4003 309.1213 15.33442023  5795

JSON: /api/v1/satellites/65601 · /tle

For live sub-satellite position, see the globe view (requires WebGL).

§ Visibility from observer

Set your observer location to see the next 7 days of passes ≥ 10°. The values pass through the URL so the page stays shareable.

No JS? Fill the form by hand. The geolocation button needs JavaScript.